Location: ??? ?????
(30.6482°N, 60.5850°E)
Time: 21:31:27
(UTC+00:00)

Cosmos 1269 Rocket - Pass Details

Date: 09 April 2020
Orbit: 772 x 779 km, 74.1° (Epoch: 24 May)

Event Time Altitude Azimuth Distance (km) Brightness Sun altitude
Rises 23:33:33 0° 346° (NNW) 3,265 7.4 -25.7°
Reaches altitude 10° 23:35:57 10° 348° (NNW) 2,334 6.7 -25.2°
Maximum altitude 23:41:16 76° 73° (ENE) 805 4.1 -24.2°
Drops below altitude 10° 23:46:32 10° 159° (SSE) 2,319 6.4 -23.2°
Sets 23:48:54 0° 161° (SSE) 3,243 7.2 -22.7°
